Precipitable_Water
0.66 0.68 0.63 0.67 0.67 0.65 0.55 0.59 0.62 0.64 0.66 0.65 0.66 0.64 0.62 0.66 0.68 0.69 0.60 0.52 0.59 0.59 0.61 0.63 0.63 0.62 0.63 0.46 0.49 0.77 0.83 0.82 0.82 0.82 0.74 0.74 0.55 0.51 0.47 0.56 0.61 0.54 0.62 0.76 0.89 0.87 0.88
0.65 0.67 0.63 0.65 0.67 0.68 0.55 0.55 0.60 0.61 0.65 0.65 0.64 0.64 0.62 0.66 0.68 0.61 0.57 0.54 0.61 0.60 0.61 0.64 0.64 0.62 0.47 0.33 0.64 0.75 0.79 0.82 0.76 0.72 0.75 0.78 0.57 0.61 0.56 0.55 0.54 0.62 0.65 0.71 0.74 0.81 0.80
0.64 0.65 0.62 0.65 0.67 0.69 0.57 0.53 0.57 0.60 0.64 0.66 0.63 0.63 0.64 0.65 0.66 0.60 0.56 0.57 0.59 0.60 0.59 0.62 0.64 0.56 0.42 0.40 0.64 0.79 0.78 0.79 0.83 0.72 0.68 0.86 0.67 0.60 0.60 0.53 0.69 0.64 0.54 0.64 0.69 0.75 0.76
0.64 0.64 0.62 0.64 0.66 0.69 0.63 0.51 0.55 0.58 0.62 0.64 0.64 0.60 0.66 0.65 0.65 0.62 0.58 0.57 0.59 0.58 0.54 0.58 0.58 0.49 0.31 0.58 0.67 0.64 0.71 0.74 0.86 0.82 0.79 0.97 0.79 0.64 0.57 0.64 0.61 0.55 0.55 0.44 0.60 0.68 0.74
0.64 0.64 0.61 0.63 0.65 0.67 0.66 0.50 0.54 0.59 0.62 0.62 0.63 0.60 0.65 0.65 0.65 0.67 0.63 0.60 0.61 0.58 0.57 0.58 0.51 0.44 0.30 0.57 0.51 0.58 0.65 0.64 0.70 0.74 0.91 0.94 0.80 0.53 0.53 0.45 0.43 0.49 0.35 0.39 0.47 0.61 0.61
0.63 0.63 0.61 0.62 0.64 0.66 0.66 0.51 0.54 0.58 0.61 0.63 0.65 0.63 0.61 0.65 0.64 0.67 0.70 0.69 0.67 0.65 0.60 0.60 0.52 0.35 0.40 0.37 0.50 0.57 0.67 0.71 0.63 0.67 0.77 0.78 0.68 0.43 0.39 0.37 0.24 0.34 0.36 0.41 0.42 0.53 0.59
0.63 0.62 0.61 0.61 0.62 0.65 0.67 0.52 0.53 0.56 0.60 0.62 0.63 0.64 0.61 0.62 0.65 0.62 0.61 0.63 0.51 0.47 0.55 0.44 0.40 0.38 0.43 0.53 0.60 0.52 0.61 0.65 0.62 0.61 0.53 0.68 0.50 0.34 0.32 0.36 0.40 0.40 0.38 0.38 0.47 0.57 0.54
0.63 0.60 0.60 0.60 0.61 0.66 0.67 0.55 0.50 0.53 0.59 0.62 0.60 0.63 0.63 0.62 0.65 0.63 0.57 0.48 0.56 0.61 0.45 0.58 0.50 0.47 0.51 0.55 0.39 0.48 0.59 0.53 0.50 0.49 0.59 0.54 0.43 0.48 0.47 0.41 0.38 0.37 0.31 0.35 0.46 0.54 0.53
0.62 0.60 0.59 0.60 0.60 0.64 0.65 0.63 0.49 0.50 0.53 0.62 0.63 0.61 0.61 0.61 0.65 0.59 0.49 0.53 0.71 0.72 0.48 0.51 0.56 0.45 0.43 0.51 0.37 0.41 0.55 0.60 0.51 0.50 0.51 0.46 0.50 0.54 0.47 0.40 0.33 0.35 0.33 0.35 0.37 0.47 0.53
0.62 0.59 0.59 0.60 0.59 0.63 0.63 0.64 0.60 0.48 0.49 0.57 0.63 0.65 0.63 0.63 0.51 0.56 0.50 0.61 0.70 0.70 0.39 0.42 0.49 0.49 0.51 0.44 0.34 0.54 0.63 0.62 0.51 0.47 0.54 0.51 0.58 0.49 0.43 0.36 0.39 0.29 0.41 0.39 0.37 0.37 0.31
0.61 0.59 0.57 0.60 0.59 0.61 0.62 0.63 0.62 0.58 0.47 0.52 0.61 0.66 0.66 0.67 0.52 0.47 0.59 0.69 0.69 0.64 0.20 0.48 0.50 0.72 0.56 0.40 0.36 0.45 0.69 0.62 0.42 0.49 0.52 0.46 0.47 0.47 0.42 0.39 0.44 0.36 0.46 0.40 0.38 0.33 0.33
0.60 0.59 0.57 0.58 0.58 0.60 0.62 0.62 0.61 0.58 0.50 0.50 0.60 0.64 0.67 0.63 0.62 0.61 0.69 0.67 0.58 0.27 0.20 0.41 0.52 0.48 0.46 0.42 0.41 0.49 0.58 0.68 0.63 0.53 0.56 0.53 0.62 0.57 0.50 0.50 0.50 0.51 0.44 0.42 0.40 0.35 0.22
0.61 0.59 0.57 0.57 0.59 0.60 0.61 0.60 0.59 0.54 0.52 0.46 0.59 0.62 0.61 0.64 0.49 0.68 0.68 0.52 0.23 0.17 0.38 0.37 0.42 0.48 0.43 0.44 0.40 0.43 0.44 0.46 0.42 0.37 0.40 0.48 0.49 0.56 0.58 0.46 0.51 0.48 0.38 0.27 0.23 0.23 0.20
0.62 0.59 0.56 0.59 0.60 0.60 0.60 0.59 0.57 0.52 0.52 0.49 0.57 0.62 0.64 0.64 0.69 0.69 0.58 0.31 0.16 0.28 0.31 0.44 0.45 0.47 0.40 0.45 0.43 0.44 0.42 0.42 0.52 0.47 0.39 0.35 0.31 0.47 0.55 0.46 0.41 0.41 0.38 0.28 0.17 0.17 0.21
0.63 0.58 0.56 0.60 0.60 0.60 0.60 0.60 0.57 0.52 0.50 0.53 0.57 0.56 0.55 0.65 0.70 0.67 0.40 0.19 0.21 0.28 0.37 0.37 0.39 0.36 0.38 0.44 0.44 0.43 0.42 0.41 0.46 0.46 0.35 0.33 0.33 0.53 0.53 0.53 0.46 0.40 0.35 0.42 0.28 0.27 0.21
0.63 0.58 0.57 0.61 0.59 0.57 0.59 0.58 0.56 0.51 0.49 0.55 0.48 0.48 0.49 0.70 0.71 0.55 0.29 0.23 0.29 0.39 0.42 0.41 0.29 0.35 0.33 0.39 0.39 0.39 0.38 0.47 0.44 0.51 0.52 0.40 0.31 0.46 0.49 0.53 0.51 0.43 0.49 0.32 0.32 0.18 0.16
0.64 0.59 0.58 0.59 0.55 0.55 0.56 0.55 0.52 0.51 0.50 0.57 0.49 0.35 0.53 0.71 0.63 0.36 0.21 0.26 0.33 0.42 0.43 0.36 0.34 0.32 0.33 0.37 0.42 0.38 0.39 0.44 0.49 0.48 0.51 0.43 0.34 0.34 0.43 0.39 0.34 0.37 0.35 0.37 0.36 0.29 0.19
0.65 0.59 0.57 0.55 0.53 0.52 0.52 0.53 0.52 0.50 0.50 0.49 0.37 0.22 0.56 0.65 0.29 0.31 0.25 0.30 0.37 0.36 0.40 0.38 0.41 0.38 0.34 0.35 0.34 0.35 0.34 0.43 0.53 0.55 0.41 0.44 0.36 0.27 0.31 0.46 0.50 0.46 0.39 0.39 0.27 0.25 0.29
0.66 0.60 0.55 0.56 0.54 0.51 0.51 0.50 0.49 0.46 0.47 0.42 0.29 0.30 0.51 0.51 0.17 0.21 0.27 0.30 0.36 0.35 0.35 0.32 0.33 0.39 0.41 0.36 0.30 0.35 0.38 0.48 0.51 0.51 0.46 0.48 0.39 0.30 0.32 0.40 0.45 0.37 0.40 0.43 0.42 0.38 0.27
0.67 0.62 0.57 0.58 0.54 0.52 0.50 0.49 0.47 0.45 0.44 0.43 0.29 0.17 0.25 0.34 0.32 0.24 0.22 0.27 0.27 0.39 0.37 0.38 0.34 0.37 0.36 0.35 0.39 0.33 0.35 0.42 0.47 0.49 0.54 0.56 0.42 0.34 0.28 0.31 0.39 0.37 0.41 0.44 0.41 0.32 0.30
0.66 0.62 0.59 0.59 0.53 0.51 0.51 0.49 0.47 0.46 0.41 0.34 0.25 0.20 0.23 0.14 0.18 0.25 0.28 0.27 0.27 0.27 0.38 0.41 0.36 0.34 0.34 0.31 0.35 0.34 0.37 0.39 0.43 0.46 0.46 0.45 0.33 0.36 0.36 0.36 0.37 0.35 0.36 0.41 0.38 0.40 0.32
0.68 0.63 0.61 0.58 0.53 0.52 0.51 0.50 0.47 0.45 0.38 0.30 0.21 0.20 0.24 0.19 0.21 0.20 0.23 0.25 0.26 0.29 0.32 0.29 0.33 0.38 0.40 0.33 0.34 0.33 0.39 0.39 0.35 0.41 0.39 0.42 0.29 0.32 0.28 0.33 0.34 0.31 0.34 0.34 0.40 0.42 0.41
0.70 0.66 0.62 0.56 0.56 0.53 0.50 0.50 0.48 0.45 0.38 0.28 0.31 0.34 0.26 0.19 0.19 0.16 0.18 0.20 0.22 0.27 0.33 0.41 0.39 0.40 0.38 0.42 0.48 0.47 0.47 0.48 0.46 0.38 0.37 0.36 0.32 0.28 0.21 0.28 0.28 0.22 0.24 0.26 0.30 0.34 0.35
0.76 0.68 0.62 0.58 0.58 0.56 0.53 0.52 0.51 0.49 0.44 0.35 0.34 0.31 0.20 0.14 0.17 0.16 0.19 0.20 0.19 0.23 0.23 0.28 0.36 0.36 0.47 0.57 0.57 0.52 0.48 0.46 0.46 0.45 0.44 0.36 0.33 0.30 0.24 0.27 0.15 0.22 0.30 0.30 0.27 0.28 0.32
0.79 0.70 0.63 0.60 0.59 0.57 0.56 0.52 0.51 0.50 0.47 0.39 0.38 0.29 0.23 0.15 0.18 0.19 0.19 0.20 0.22 0.25 0.26 0.27 0.31 0.36 0.49 0.50 0.42 0.36 0.36 0.36 0.38 0.43 0.42 0.43 0.36 0.29 0.24 0.22 0.22 0.22 0.24 0.25 0.25 0.23 0.31
0.78 0.68 0.62 0.60 0.60 0.58 0.58 0.52 0.53 0.52 0.50 0.43 0.39 0.41 0.31 0.20 0.19 0.23 0.20 0.23 0.23 0.24 0.26 0.33 0.43 0.47 0.49 0.43 0.41 0.28 0.23 0.28 0.27 0.33 0.43 0.43 0.42 0.32 0.27 0.21 0.16 0.24 0.35 0.38 0.36 0.21 0.38
0.76 0.67 0.62 0.62 0.59 0.58 0.56 0.53 0.53 0.53 0.52 0.45 0.42 0.45 0.34 0.23 0.26 0.27 0.23 0.23 0.29 0.27 0.24 0.28 0.33 0.34 0.52 0.38 0.34 0.31 0.27 0.33 0.24 0.25 0.28 0.32 0.34 0.30 0.28 0.24 0.25 0.31 0.34 0.43 0.23 0.25 0.46
0.74 0.69 0.65 0.59 0.63 0.59 0.55 0.54 0.57 0.55 0.53 0.48 0.44 0.51 0.38 0.27 0.27 0.33 0.33 0.29 0.30 0.30 0.24 0.29 0.29 0.34 0.39 0.35 0.33 0.36 0.32 0.31 0.28 0.31 0.29 0.28 0.28 0.28 0.30 0.25 0.19 0.36 0.38 0.30 0.39 0.49 0.52
0.72 0.69 0.61 0.62 0.64 0.57 0.55 0.56 0.57 0.56 0.54 0.53 0.41 0.51 0.50 0.36 0.29 0.38 0.40 0.42 0.39 0.37 0.34 0.35 0.30 0.33 0.40 0.37 0.37 0.37 0.36 0.36 0.30 0.23 0.36 0.26 0.32 0.29 0.30 0.27 0.37 0.40 0.41 0.46 0.47 0.47 0.55
Wind_Speed
25 28 32 34 37 38 39 39 40 41 41 40 42 43 42 43 37 33 28 23 18 12 9 7 5 4 9 18 23 24 23 28 33 35 34 27 30 29 27 27 25 25 29 33 30 27 32
24 27 31 33 36 37 38 38 39 40 40 38 39 41 40 40 37 33 30 25 22 16 11 7 4 1 5 13 19 23 20 27 31 37 33 28 29 29 26 26 26 25 26 28 31 28 28
23 26 30 32 35 36 38 38 38 39 38 37 37 38 38 37 35 32 30 27 23 19 14 9 5 2 2 10 17 18 19 25 29 35 32 29 27 28 25 24 25 21 23 27 28 27 24
22 25 29 31 34 36 37 37 37 37 37 36 34 35 35 34 34 32 30 27 24 20 17 11 6 3 2 7 15 17 18 23 27 31 32 28 26 27 24 22 22 20 23 25 29 29 25
22 24 27 30 33 35 35 36 37 36 36 35 33 32 32 33 32 31 29 27 24 21 17 14 9 4 1 6 13 16 17 24 28 29 29 27 26 29 23 22 21 21 24 25 24 30 25
21 23 26 29 32 35 35 35 36 35 35 33 32 31 29 29 29 29 27 26 25 23 19 15 11 5 2 5 13 16 18 23 28 30 24 26 24 26 23 23 26 19 18 21 22 25 28
19 22 25 28 31 34 34 34 35 35 35 33 31 29 28 27 27 27 24 24 24 23 23 19 13 6 2 5 13 17 18 22 27 27 25 22 22 28 25 23 19 19 17 19 20 21 24
19 21 24 27 30 32 33 33 34 34 34 33 31 29 27 25 24 25 22 21 21 21 21 23 18 8 4 7 13 16 18 24 27 23 24 22 23 23 24 22 19 18 19 17 18 18 22
18 20 23 26 28 31 33 32 33 33 33 34 31 29 27 24 23 22 20 19 19 19 21 21 21 13 5 7 14 16 18 24 24 23 17 20 20 24 23 22 18 16 16 17 15 18 20
17 20 22 25 27 30 32 33 32 33 33 33 32 29 27 24 21 21 19 18 16 15 17 22 18 17 9 9 13 17 18 23 23 20 14 17 19 22 23 21 19 16 15 15 14 13 18
17 19 21 23 26 28 30 33 32 33 33 32 31 29 27 24 21 20 18 15 14 14 15 17 17 16 14 8 17 16 17 19 23 21 16 15 20 20 21 20 20 17 14 16 15 14 13
17 18 20 22 24 27 29 32 32 33 32 32 30 28 26 25 22 20 17 14 13 13 13 15 13 13 13 11 12 17 16 17 19 15 14 14 17 16 16 18 19 16 13 11 11 12 13
16 18 19 20 23 26 29 31 32 32 32 32 28 26 26 24 23 20 17 13 12 11 9 12 12 10 10 10 10 14 16 17 17 14 13 14 16 15 17 15 15 18 14 12 13 14 15
16 17 18 20 22 25 28 29 31 32 32 31 27 25 25 25 23 20 17 14 13 8 7 8 8 6 7 8 7 11 17 16 14 13 14 14 15 17 16 17 16 17 18 14 14 14 14
15 16 17 19 22 24 27 28 30 31 32 29 24 24 26 26 22 21 17 16 8 6 6 7 6 4 5 4 8 8 13 15 13 15 13 11 11 16 15 16 16 18 18 16 12 11 10
15 16 17 18 20 23 26 28 29 31 31 26 23 23 26 26 22 21 18 13 10 6 6 5 5 2 2 4 5 5 10 12 13 14 14 13 11 14 15 17 17 16 18 15 14 13 14
15 15 15 17 19 21 24 26 28 30 30 24 22 23 26 25 23 22 19 14 12 8 6 5 4 3 2 4 5 5 7 9 12 14 13 12 11 13 16 20 20 18 17 16 15 17 15
15 14 14 15 16 19 22 25 27 29 29 22 22 22 25 25 24 23 20 17 15 11 7 7 5 5 5 5 6 7 7 8 11 13 14 14 10 13 16 17 21 22 22 21 17 18 18
15 13 13 13 15 18 20 23 26 28 27 22 21 22 24 25 24 24 23 20 16 13 10 8 8 7 6 7 7 8 8 8 9 10 12 13 10 9 9 12 18 22 25 23 19 15 18
16 14 13 12 14 17 19 22 25 27 26 22 22 23 24 25 25 25 26 23 20 16 13 10 10 10 9 9 10 8 10 10 11 11 12 13 11 11 11 9 10 16 20 26 25 20 17
17 15 13 12 13 16 19 21 24 26 24 22 22 22 23 24 25 26 26 24 23 19 14 11 11 12 10 11 10 11 12 11 13 13 12 13 13 13 14 13 12 13 15 22 29 27 22
18 16 14 12 13 15 18 21 23 25 22 21 22 23 24 24 26 26 26 25 23 21 17 14 12 15 15 15 15 13 12 12 14 14 15 13 12 11 13 14 15 15 16 18 23 24 26
19 17 15 13 13 15 18 20 21 24 22 21 22 23 24 25 26 26 25 26 26 26 21 17 13 15 16 17 16 16 15 14 14 14 16 14 13 12 14 12 13 16 21 22 19 20 20
21 19 17 15 15 16 18 20 21 23 23 22 22 24 25 25 26 26 27 29 28 27 25 23 20 17 17 16 16 17 17 17 16 17 15 14 13 13 13 11 14 15 14 16 22 24 24
23 21 19 17 16 17 19 20 21 22 23 22 23 24 26 27 28 29 30 31 32 32 29 26 24 21 22 20 18 16 15 16 18 18 18 16 14 12 13 14 16 15 13 13 14 16 20
25 23 20 18 18 18 20 20 20 21 23 23 24 26 27 28 28 30 33 34 34 33 30 24 21 19 19 19 19 18 16 14 13 12 15 16 16 14 12 12 13 12 10 11 12 13 13
26 24 22 20 20 20 20 21 21 22 23 25 26 27 28 28 28 32 33 35 35 33 28 25 20 15 16 18 19 18 19 17 15 14 12 13 14 16 15 13 14 14 13 10 9 11 10
28 26 24 22 21 21 21 22 22 23 25 26 28 29 30 30 32 31 37 36 36 31 25 22 18 10 14 16 18 17 17 20 17 16 14 13 13 12 13 13 14 11 9 11 10 9 9
28 27 25 23 23 23 22 23 24 25 25 26 29 31 32 32 34 39 36 39 36 32 26 19 15 11 12 15 12 14 18 17 19 17 16 14 15 13 14 12 11 10 11 10 10 10 8
Wind_Direction
354 356 359 360 1 2 3 3 4 4 4 4 5 6 8 10 14 17 18 16 10 1 353 352 335 252 215 208 209 207 212 208 204 199 199 200 199 199 202 204 204 211 208 210 207 211 211
352 355 358 360 0 1 2 3 3 4 4 4 6 8 10 13 16 19 20 19 18 14 8 4 3 333 208 203 201 204 208 201 199 195 196 198 198 197 199 202 203 206 206 203 204 213 212
351 353 356 359 360 1 2 3 3 3 4 4 6 8 11 14 17 19 21 22 21 23 22 18 19 22 172 194 192 191 195 192 195 192 194 195 196 195 197 197 203 208 204 204 204 204 208
349 352 355 358 360 1 2 2 3 3 5 5 5 8 10 13 16 18 19 21 23 23 21 18 23 21 187 180 185 193 190 189 183 187 190 193 193 193 195 197 198 204 206 206 212 206 209
347 351 354 358 359 0 1 3 4 4 5 5 5 6 8 12 14 16 18 20 21 20 20 22 20 30 143 173 177 180 181 180 178 181 185 189 192 194 194 192 195 208 207 208 210 211 211
345 350 353 356 357 359 1 2 4 3 4 4 4 4 6 7 11 13 17 21 23 25 23 20 19 27 74 181 183 177 176 173 178 177 174 183 189 191 195 195 200 201 208 205 210 210 212
341 347 350 353 356 358 0 1 2 2 1 1 360 0 2 3 7 11 14 19 21 22 26 24 12 24 44 167 169 172 173 173 175 180 184 182 187 194 193 195 197 199 206 206 211 211 211
336 342 348 351 353 357 358 359 0 1 1 1 358 359 359 0 2 7 13 18 22 23 25 25 23 35 80 153 162 165 169 169 174 176 182 190 195 191 190 192 196 198 206 213 216 214 215
331 339 344 348 352 355 358 358 358 360 360 0 359 357 357 357 359 4 8 12 15 20 27 27 30 36 77 138 157 164 165 170 170 171 183 185 187 188 191 194 193 200 205 209 212 221 222
327 335 341 345 349 353 356 358 357 357 357 358 359 357 356 356 358 360 1 5 10 15 24 26 31 36 63 135 153 160 163 169 171 172 167 182 179 183 190 195 195 200 207 210 217 213 226
321 331 338 343 347 351 354 356 356 356 357 356 357 358 357 357 355 356 357 1 9 19 27 16 31 41 58 111 154 159 161 169 173 172 174 188 183 182 192 197 196 200 205 207 216 221 226
317 327 334 341 345 349 352 354 355 355 355 355 355 359 360 0 357 355 358 2 12 20 26 28 34 49 66 93 140 159 162 163 172 178 186 189 189 192 193 197 201 200 201 211 217 223 236
312 322 331 339 344 348 351 353 354 355 355 356 356 359 0 0 359 358 358 0 2 21 12 20 38 50 65 84 121 157 166 167 168 181 184 181 190 200 199 198 206 206 200 213 223 228 235
307 319 326 333 341 346 350 352 354 355 355 355 357 0 360 359 359 358 358 2 17 2 11 13 31 52 72 86 102 156 172 171 181 181 185 188 196 197 203 206 203 205 206 213 220 227 236
301 313 321 329 337 343 348 351 353 354 355 355 359 2 2 360 359 360 360 5 355 349 355 4 8 54 84 95 111 138 169 185 197 198 187 190 204 202 208 209 209 211 214 218 225 244 249
294 307 317 326 333 340 345 349 351 353 355 357 1 3 3 3 4 2 3 359 353 347 339 342 354 351 98 131 129 159 182 199 201 198 201 207 205 213 210 213 217 216 211 221 232 238 247
286 301 313 324 332 340 345 350 353 355 356 360 3 4 3 4 3 4 2 351 342 332 321 320 322 302 260 188 190 189 198 205 204 201 207 206 214 216 215 220 215 216 219 225 235 232 238
279 293 308 322 333 342 348 353 356 357 358 2 3 3 2 4 4 3 2 352 341 328 319 295 285 274 253 236 216 218 211 209 206 206 211 214 215 219 222 226 223 226 225 228 233 235 241
272 283 299 314 327 337 344 351 354 356 358 359 1 0 1 1 3 359 357 352 344 329 310 291 273 257 257 248 241 226 217 213 200 196 199 202 215 212 223 235 230 231 227 230 235 241 235
264 273 288 303 320 332 339 345 350 352 355 355 356 355 353 358 359 356 356 353 348 337 316 287 268 260 255 250 241 239 227 222 216 209 204 201 216 218 219 227 221 228 230 228 228 235 240
258 264 276 293 312 326 334 340 344 347 348 349 351 351 352 349 352 352 352 349 347 342 324 301 276 254 251 248 247 241 238 233 228 219 216 219 230 232 242 241 234 237 234 226 230 237 239
251 257 267 285 303 320 330 335 339 343 344 347 346 346 346 344 346 346 347 349 344 340 331 311 272 263 252 245 240 246 235 233 229 227 224 233 237 239 250 246 244 248 243 236 235 239 247
244 252 260 274 296 313 325 331 335 340 341 340 341 342 342 339 343 343 342 342 339 339 326 310 300 272 256 250 246 243 240 240 237 224 226 228 232 239 249 254 253 259 248 241 241 239 241
242 247 253 270 289 304 317 325 330 336 339 337 336 338 339 335 336 335 337 334 330 328 322 307 297 269 251 253 251 244 241 240 235 236 231 230 231 238 244 250 254 253 250 248 242 245 243
240 243 252 265 283 298 309 317 323 330 333 334 333 335 335 331 331 331 332 329 326 323 317 306 289 273 257 249 245 239 239 240 239 235 231 232 230 238 240 242 261 264 250 242 242 255 244
236 241 248 262 279 292 302 308 316 323 327 330 329 330 331 330 330 330 329 329 328 326 321 311 302 281 248 235 234 229 229 227 230 231 228 230 234 233 238 245 249 249 256 244 246 262 259
235 239 248 261 275 287 294 301 309 315 320 324 325 327 328 327 327 328 327 329 326 325 321 314 306 278 241 229 232 228 231 225 225 220 222 226 232 231 237 244 255 248 251 238 242 248 268
233 240 248 259 272 282 289 296 302 309 314 319 321 322 325 324 323 326 325 326 324 323 320 317 307 260 239 232 230 230 231 228 226 228 224 222 222 231 229 238 251 236 232 230 241 259 262
235 239 246 259 271 277 285 293 299 304 308 313 319 321 320 321 320 322 320 319 316 312 311 304 289 269 240 233 237 239 234 231 224 230 229 230 228 228 222 232 234 238 234 239 246 248 254